SCP
0 0 0 1 0 0 0 0 0 0 0 0 0 0 0 0 1 1 2 2 3 2 2 2 3 3 3 3 3 2 2 1 1 1 1 1 0 0 0 0 0 0 0 0 0 0 0 0 0
0 0 0 1 0 0 0 0 0 0 0 0 0 0 0 0 1 1 2 3 3 3 2 3 3 3 3 3 3 2 2 1 1 1 1 1 0 0 0 0 0 0 0 0 0 0 0 0 0
0 0 0 0 0 0 0 0 0 1 0 0 0 0 0 0 1 1 2 2 2 2 3 3 4 4 3 3 3 2 2 2 1 1 1 1 1 1 1 0 0 0 0 0 0 0 0 0 0
0 0 0 0 0 0 0 0 1 1 0 0 0 0 1 1 1 1 1 1 2 2 3 4 4 4 3 3 3 3 2 2 2 1 1 1 1 1 1 1 0 0 0 0 1 0 0 0 0
0 0 0 0 0 0 0 1 1 0 0 0 0 0 1 1 1 1 1 1 2 2 3 3 4 4 3 3 3 3 2 2 2 2 1 1 1 1 1 1 1 0 1 1 1 1 1 0 0
0 0 0 0 0 0 0 1 1 0 0 0 0 1 1 1 1 1 1 2 2 3 3 3 4 4 3 3 3 2 2 2 2 2 2 1 1 1 1 1 1 1 1 1 1 1 1 1 1
0 0 0 0 0 0 0 1 0 0 0 0 0 1 1 1 1 1 2 2 3 3 3 3 3 3 3 3 3 2 2 2 2 2 2 2 2 2 1 1 1 1 1 1 1 1 1 1 1
0 0 0 0 0 0 0 0 0 0 0 0 1 1 1 1 1 1 2 3 3 4 3 3 3 3 3 3 2 2 2 2 1 1 2 2 2 2 1 1 1 1 1 1 1 1 1 1 1
0 0 0 0 0 0 0 0 0 0 0 1 1 1 1 1 1 1 2 3 4 4 4 3 3 2 2 2 2 2 2 2 1 1 1 1 1 1 1 1 1 1 1 1 1 1 1 1 1
0 0 0 0 0 0 0 0 0 0 0 1 1 1 1 1 1 1 2 2 3 4 4 4 3 3 3 3 3 2 2 2 2 1 1 1 1 1 1 1 1 1 1 1 1 1 1 1 1
0 0 0 0 0 0 0 0 0 0 0 0 1 1 1 1 1 1 1 1 2 3 4 4 4 3 3 3 3 3 3 2 2 2 1 1 1 1 1 1 1 1 1 1 1 1 1 1 0
0 0 0 0 0 0 0 0 0 0 0 0 1 1 1 1 1 1 1 1 1 1 2 3 3 3 4 4 4 4 3 3 2 2 2 2 1 1 1 1 1 1 1 1 1 1 1 0 0
0 0 0 0 0 0 0 0 0 0 0 0 0 1 1 1 1 0 0 0 0 0 1 1 2 2 3 4 5 4 4 4 3 3 3 2 2 2 1 1 1 1 1 1 1 1 0 0 0
0 0 0 0 0 0 0 0 0 0 0 0 0 0 1 0 0 0 0 0 0 0 0 1 1 1 2 3 4 4 4 4 3 3 3 3 2 2 2 1 1 1 1 1 1 0 0 0 0
0 0 0 0 0 0 0 0 0 0 0 0 0 0 0 0 0 0 0 0 0 0 0 0 1 1 1 2 2 3 3 3 3 2 2 2 2 2 2 2 1 1 1 1 1 0 0 0 0
0 0 0 0 0 0 0 0 0 0 0 0 0 0 0 1 0 0 0 0 1 1 1 1 1 1 1 1 1 2 3 3 2 2 2 2 2 2 2 2 2 2 1 1 1 1 0 0 0
0 0 0 0 0 0 0 0 0 0 0 0 0 0 0 1 1 0 1 1 1 1 1 1 1 2 1 1 1 1 2 2 2 2 2 2 1 1 1 2 2 1 1 1 1 1 0 0 0
0 0 0 0 0 0 0 0 0 0 0 0 0 0 0 0 1 1 1 1 1 1 1 2 2 2 2 1 1 1 1 2 2 2 2 2 2 1 1 1 1 1 1 1 1 0 0 0 0
0 0 0 0 0 0 0 0 0 0 0 0 0 0 0 0 0 0 0 0 0 0 1 1 2 2 2 1 1 1 1 1 2 2 2 2 2 2 1 1 1 0 0 0 0 0 0 0 0
0 0 0 0 0 0 0 0 0 0 0 0 0 0 0 0 0 0 0 0 0 0 0 1 1 2 2 2 1 0 1 1 1 1 1 2 2 2 2 1 1 0 0 0 0 0 0 0 0
0 0 0 0 0 0 0 0 0 0 0 0 0 0 0 0 0 0 0 0 0 0 0 0 0 1 2 2 1 0 0 1 0 0 0 1 1 2 2 1 1 1 0 0 0 0 0 0 0
0 0 0 0 0 0 0 0 0 0 0 0 0 0 0 0 0 0 0 0 0 0 0 0 0 0 1 1 1 0 0 0 0 0 0 0 1 1 1 1 1 1 1 0 0 0 0 0 0
0 0 0 0 0 0 0 0 0 0 0 0 0 0 0 0 0 0 0 0 0 0 0 0 0 0 1 1 1 0 0 0 0 0 0 0 0 1 1 1 1 1 1 1 0 0 0 0 0
0 0 0 0 0 0 0 0 0 0 0 0 0 0 0 0 0 0 0 0 0 0 0 0 0 0 0 1 1 0 0 0 0 0 0 0 0 0 0 0 1 1 1 1 1 0 0 0 0
0 0 0 0 0 0 0 0 0 0 0 0 0 0 0 0 0 0 0 0 0 0 0 0 0 0 0 1 1 0 0 0 0 0 0 0 0 0 0 0 0 0 0 1 1 0 0 0 0
0 0 0 0 0 0 0 0 0 0 0 0 0 0 0 0 0 0 0 0 0 0 0 0 0 0 0 0 0 0 0 0 0 0 0 0 0 0 0 0 0 0 0 0 1 0 0 0 0
0 0 0 0 0 0 0 0 0 0 0 0 0 0 0 0 0 0 0 0 0 0 0 0 0 0 0 0 0 0 0 0 0 0 0 0 0 0 0 0 0 0 0 0 0 0 0 0 0
0 0 0 0 0 0 0 0 0 0 0 0 0 0 0 0 0 0 0 0 0 0 0 0 0 0 0 0 0 0 0 0 0 0 0 0 0 0 0 0 0 0 0 0 0 0 0 0 0
0 0 0 0 0 0 0 0 0 0 0 0 0 0 0 0 0 0 0 0 0 0 0 0 0 0 0 0 0 0 0 0 0 0 0 0 0 0 0 0 0 0 0 0 0 0 0 0 0
0 0 0 0 0 0 0 0 0 0 0 0 0 0 0 0 0 0 0 0 0 0 0 0 0 0 0 0 0 0 0 0 0 0 0 0 1 0 0 0 0 0 0 0 0 0 0 0 0
Wind_Speed
12 10 6 2 3 4 7 5 0 2 3 4 5 4 5 5 5 5 2 5 6 7 8 7 7 7 7 7 8 8 8 9 9 9 10 10 10 10 10 10 10 11 11 11 12 12 12 12 12
9 7 3 3 4 5 6 4 1 3 4 4 4 3 3 6 6 6 2 4 5 7 7 7 7 7 7 8 8 8 8 9 9 9 9 9 9 10 10 10 10 10 11 11 11 11 11 11 11
10 7 3 3 4 5 3 2 4 5 3 2 2 4 4 4 5 3 3 3 4 6 7 7 7 7 7 8 8 8 8 9 9 9 9 9 9 9 9 9 10 10 10 10 10 10 10 10 9
5 3 4 4 7 4 2 3 4 3 2 2 2 4 5 6 4 4 3 3 4 6 7 7 7 7 7 7 8 7 7 8 9 9 8 8 8 8 9 9 9 9 10 10 9 9 9 9 8
3 3 4 6 8 4 1 3 2 1 2 1 2 2 4 5 6 5 3 3 4 5 6 6 7 6 7 7 7 7 7 8 8 8 8 8 8 8 8 8 9 9 9 9 9 8 8 8 7
3 3 4 7 6 3 0 2 1 1 1 2 1 1 4 5 6 4 3 3 4 5 6 6 6 6 6 6 7 7 7 7 7 8 7 7 8 7 7 7 8 8 8 8 8 7 7 6 5
3 3 5 6 4 2 0 2 1 1 1 2 2 2 4 4 4 3 3 3 4 5 5 4 4 4 5 6 6 6 7 7 7 7 7 7 7 7 7 7 7 7 6 6 7 6 6 5 4
3 3 4 5 4 2 2 2 3 3 2 3 3 2 2 2 2 2 3 3 4 4 4 4 3 3 3 4 5 6 7 6 6 6 6 6 6 6 7 7 6 6 6 5 5 5 5 4 2
3 3 4 3 2 1 2 1 3 3 3 4 4 5 4 5 4 3 3 3 3 4 3 2 3 3 3 3 4 5 6 5 5 5 6 5 3 4 4 6 5 5 5 4 4 4 3 2 1
2 3 4 2 3 2 2 2 2 1 1 2 2 4 5 5 4 3 3 2 2 2 2 2 2 2 2 2 3 2 3 3 3 3 3 2 2 2 4 5 5 5 4 3 3 3 3 2 1
2 3 1 2 4 3 2 2 2 1 1 0 1 3 3 4 3 1 1 2 1 1 2 2 2 2 2 2 2 1 1 2 2 3 2 2 2 2 3 2 3 3 3 2 1 1 1 1 1
2 2 3 1 2 2 2 2 1 1 1 3 2 3 3 3 2 1 1 1 1 2 2 2 2 2 2 2 1 1 2 2 2 2 2 2 2 2 2 2 2 2 1 1 1 1 1 1 1
4 2 1 1 1 1 1 2 2 2 1 1 2 2 3 2 2 1 1 2 1 1 2 2 2 2 2 2 2 2 2 2 2 2 2 2 2 2 2 2 1 1 1 1 1 1 1 1 1
1 2 2 2 3 1 1 2 2 3 3 2 2 2 2 2 2 1 1 1 1 1 1 1 2 2 2 2 2 2 2 2 2 3 3 3 2 2 2 2 1 1 1 1 0 0 0 1 1
1 3 4 4 4 3 2 4 5 4 3 3 3 3 2 2 1 1 1 1 1 1 2 2 2 2 2 2 2 2 2 2 3 3 3 3 3 2 2 2 1 1 1 1 0 0 0 1 1
3 3 4 3 4 3 3 5 3 4 4 3 3 3 3 2 1 1 1 1 1 2 2 2 2 2 2 2 2 2 2 2 3 2 2 3 3 2 2 2 1 1 1 1 0 0 0 1 1
4 4 4 3 4 3 4 4 2 2 4 3 2 2 3 2 2 1 1 1 1 2 2 3 2 2 2 2 2 2 2 3 3 3 2 2 2 3 2 2 1 1 1 1 1 1 0 0 1
3 4 3 3 4 3 4 5 3 2 2 2 2 2 2 2 2 2 2 2 2 2 2 3 3 2 2 1 2 2 2 3 2 2 2 2 2 2 2 2 2 1 1 1 1 1 1 0 1
5 4 4 3 0 2 5 6 4 4 3 3 2 2 2 2 3 3 2 3 3 3 3 2 2 2 2 1 1 2 2 2 2 2 2 2 2 2 2 1 1 1 1 1 1 1 1 1 1
5 5 5 2 1 3 4 7 6 5 5 4 4 3 2 1 2 2 3 3 3 2 2 2 2 1 1 1 1 1 2 2 2 2 2 2 2 2 2 2 1 1 1 1 1 1 0 1 1
5 4 4 4 4 3 4 7 7 6 6 4 3 3 2 2 2 2 2 2 2 2 1 1 2 1 2 2 2 2 2 2 2 1 1 2 2 2 2 2 1 1 1 0 1 0 0 0 1
4 2 4 4 3 3 3 4 4 4 5 5 4 3 3 3 2 3 3 2 2 2 1 2 2 2 2 2 2 2 2 2 1 1 1 1 2 2 2 1 1 1 1 0 1 1 0 1 1
2 3 4 4 4 4 4 4 5 4 4 4 3 3 2 3 3 3 3 2 2 2 2 2 2 2 1 1 1 1 1 1 1 1 1 1 1 1 1 1 1 1 1 1 1 1 0 0 1
2 2 4 4 2 5 6 6 5 2 4 3 2 2 2 3 3 3 3 3 2 3 2 2 2 2 1 1 1 1 2 1 1 1 1 0 1 1 1 0 1 1 1 1 1 1 1 1 1
1 0 1 1 3 6 3 4 4 1 2 2 2 1 2 3 3 3 3 3 2 2 2 1 1 1 1 1 1 1 1 1 1 0 0 0 0 0 0 1 1 1 1 2 1 2 1 1 1
3 2 2 3 3 2 2 4 1 2 3 4 4 3 4 3 2 3 2 2 2 2 1 1 0 0 1 1 0 0 1 1 1 0 1 1 1 1 1 1 1 1 2 2 2 2 2 2 2
2 3 2 2 3 3 4 3 1 1 2 3 4 4 3 3 3 3 3 2 2 1 1 1 1 1 1 1 0 0 0 0 0 1 1 1 0 0 1 1 1 2 2 2 2 2 3 3 3
2 2 1 2 2 4 5 4 3 2 2 1 2 2 2 3 3 2 2 2 1 1 1 1 0 1 1 0 0 0 1 1 1 0 1 1 1 1 1 1 1 1 2 2 2 2 2 3 2
2 2 2 2 3 3 4 3 1 3 1 0 1 1 1 2 2 2 2 1 1 1 0 0 0 0 1 1 1 1 1 1 1 1 2 1 1 1 1 2 1 1 2 2 2 2 3 3 3
1 2 2 2 4 3 4 5 1 3 2 1 1 1 1 1 1 2 2 2 2 1 1 0 0 0 1 1 1 2 1 1 1 1 2 2 2 2 2 2 2 2 2 2 2 3 3 3 3
Wind_Direction
301 280 259 256 241 234 241 247 106 62 38 25 23 17 41 34 30 96 118 71 93 111 119 117 110 109 110 113 115 112 117 116 113 109 105 105 104 102 98 95 93 91 89 87 86 88 88 88 88
292 284 266 239 240 236 239 221 141 61 58 35 26 21 51 66 65 89 74 53 89 111 117 113 111 108 112 117 119 117 118 119 117 113 109 108 108 105 103 99 96 94 92 90 89 89 89 87 86
274 265 254 234 236 242 272 63 92 76 77 59 49 33 33 54 64 69 65 61 79 103 108 111 108 109 113 119 120 122 120 122 120 116 114 112 110 109 107 105 101 98 95 93 92 91 91 89 86
270 243 244 246 248 256 301 51 65 85 80 66 79 87 72 43 38 51 60 80 81 99 105 113 108 112 115 119 121 121 120 125 122 118 116 114 112 109 107 105 103 100 98 97 95 94 93 91 88
242 245 229 236 243 254 356 48 47 106 118 88 75 84 89 57 57 61 51 73 86 97 105 121 114 113 116 122 125 125 123 128 126 122 120 116 112 109 109 107 106 104 102 101 99 98 96 94 90
248 244 235 234 230 228 162 64 1 5 76 54 49 69 101 77 54 51 47 58 86 96 111 123 119 115 118 123 127 125 125 128 129 124 123 120 114 111 113 115 112 109 106 104 104 103 101 96 92
261 256 252 260 246 222 90 68 31 327 78 49 351 69 107 69 47 42 48 56 73 92 104 116 125 123 125 126 125 126 122 124 125 123 121 116 112 111 112 111 113 112 110 109 108 108 105 103 94
285 283 253 258 258 275 59 53 24 2 27 47 17 43 99 92 66 69 57 56 60 71 88 106 119 124 122 124 123 127 123 122 126 125 122 120 118 115 110 107 108 110 114 116 114 113 112 109 104
273 257 254 272 286 329 83 80 61 29 39 49 45 37 70 107 103 93 70 49 53 53 66 92 108 108 118 129 128 130 132 127 128 126 123 126 129 132 127 118 112 112 113 120 127 129 128 121 153
243 239 250 326 353 3 50 56 91 86 59 70 61 67 89 103 100 98 86 60 50 46 45 66 89 95 98 118 123 139 140 136 135 132 136 137 122 119 118 121 117 112 109 114 131 147 154 164 195
221 234 263 341 10 360 354 17 46 189 259 288 135 117 114 112 102 100 104 99 80 68 44 42 59 84 87 90 119 122 121 129 128 120 128 118 104 102 102 109 111 114 109 103 119 147 202 198 209
225 248 278 326 28 14 328 323 347 287 310 30 77 127 128 126 127 125 94 70 55 55 53 37 39 66 80 89 93 100 113 122 119 116 123 116 112 111 114 117 131 134 132 136 173 217 242 233 233
224 239 260 270 297 227 284 292 289 271 282 44 78 106 129 130 132 139 108 87 64 44 50 47 47 59 67 101 100 87 80 98 108 96 81 84 101 117 120 125 125 128 118 150 217 229 241 250 271
219 238 252 242 239 212 220 263 258 252 244 189 155 159 154 155 154 130 77 72 75 71 52 45 63 67 69 83 93 94 84 83 81 87 76 79 83 92 106 105 112 108 118 135 215 248 260 264 258
236 240 239 225 219 210 208 260 233 220 210 200 191 181 175 163 146 118 89 82 94 96 73 43 74 78 86 94 100 99 89 87 85 82 75 75 79 88 90 90 83 72 77 77 354 359 356 350 339
223 232 233 200 201 196 199 256 220 187 192 194 198 185 168 154 137 111 102 92 90 101 96 78 68 70 72 93 104 99 96 102 95 84 72 63 65 74 90 87 67 48 62 60 9 56 20 351 320
214 236 231 198 182 186 209 245 221 191 189 192 190 179 167 153 138 117 115 113 103 103 99 93 79 79 75 86 120 115 109 104 98 93 85 82 73 74 83 86 57 44 57 50 16 9 10 283 309
233 250 256 236 175 197 230 239 227 218 213 210 192 178 167 160 148 126 102 94 90 94 92 88 85 72 68 80 106 110 103 108 106 106 110 102 93 87 84 86 69 39 43 30 32 8 331 218 252
294 280 271 273 86 237 250 257 246 221 217 216 199 197 173 142 123 113 103 89 70 56 68 81 80 71 68 65 99 127 128 127 120 116 119 119 111 105 102 92 87 51 37 8 346 349 328 345 7
290 288 291 294 263 259 264 269 255 220 215 207 200 189 160 125 97 89 89 86 89 75 61 65 80 80 72 63 77 128 134 129 130 118 110 119 119 118 120 117 120 93 14 6 348 359 358 321 64
267 275 296 302 312 270 279 273 237 215 205 200 188 164 154 157 148 120 101 84 83 74 56 61 55 72 71 65 64 77 78 85 93 107 119 130 140 141 136 145 152 142 118 287 297 305 105 246 268
268 300 294 290 291 264 226 277 249 201 197 192 190 176 168 153 137 131 119 111 95 74 59 64 60 60 78 93 98 111 127 142 142 149 149 152 144 143 134 132 156 153 156 202 267 304 289 156 232
294 307 286 275 273 276 236 249 261 192 209 190 174 163 150 138 141 132 117 116 106 90 69 62 69 57 66 103 105 111 89 101 97 104 116 136 141 136 130 146 182 175 179 200 242 283 281 187 160
296 289 268 254 257 261 226 219 260 213 202 166 132 119 115 114 119 121 113 103 93 85 72 57 60 55 54 101 121 119 107 74 79 98 139 167 129 115 103 234 236 212 202 212 239 256 240 248 232
246 132 308 238 221 242 209 213 240 143 95 121 127 108 94 95 100 106 111 101 85 76 67 50 45 19 23 88 115 138 145 142 139 132 209 186 161 152 202 247 247 241 227 221 216 235 238 229 225
234 216 202 229 247 278 233 230 233 73 68 73 73 73 67 67 77 88 103 111 101 92 79 60 55 359 9 32 11 299 181 170 183 224 224 223 214 208 209 247 240 255 260 249 223 221 225 225 226
252 231 279 287 286 276 242 205 177 98 81 76 71 62 53 58 62 70 72 81 95 86 57 29 1 349 338 337 317 295 235 164 219 284 280 260 284 275 216 248 242 241 242 246 237 233 229 225 226
275 305 272 232 251 261 255 229 220 196 184 83 54 45 31 40 36 42 53 55 54 78 57 33 314 276 279 279 247 249 204 193 204 239 273 280 291 309 282 268 257 255 250 237 236 244 240 230 229
203 227 242 252 254 258 274 270 13 157 169 190 2 46 49 31 13 15 20 16 22 48 72 200 233 253 266 254 241 237 211 200 211 223 236 241 248 248 250 259 262 264 263 256 245 250 245 237 244
265 242 206 217 252 250 265 270 29 91 117 111 42 25 35 33 13 2 3 5 1 354 332 257 246 290 284 253 248 233 217 218 230 240 241 242 243 235 234 244 252 262 268 263 254 263 254 245 245